H1 CPF 2 NER 2023 3 22 9 081 01 glonass143 H2 2007501 9143 46805 2023 3 22 0 0 0 2023 3 25 23 45 0 900 1 1 0 0 0 1 H9 10 0 60025 0.00000 0 4596653.437 18974165.169 16431678.578 10 0 60025 900.00000 0 3314824.670 17239305.125 18518834.825 10 0 60025 1800.00000 0 1749980.273 15430800.034 20246696.208 10 0 60025 2700.00000 0 -79729.549 13612007.623 21581734.097 10 0 60025 3600.00000 0 -2144018.851 11843251.675 22498029.211 10 0 60025 4500.00000 0 -4401479.529 10179383.552 22977772.830 10 0 60025 5400.00000 0 -6801066.762 8667590.713 23011612.522 10 0 60025 6300.00000 0 -9283995.890 7345542.992 22598835.861 10 0 60025 7200.00000 0 -11785973.296 6239953.378 21747388.502 10 0 60025 8100.00000 0 -14239669.822 5365612.743 20473725.964 10 0 60025 9000.00000 0 -16577335.038 4724938.386 18802501.404 10 0 60025 9900.00000 0 -18733444.494 4308054.830 16766094.695 10 0 60025 10800.00000 0 -20647270.304 4093403.181 14403991.110 10 0 60025 11700.00000 0 -22265268.292 4048853.151 11762020.807 10 0 60025 12600.00000 0 -23543182.035 4133270.717 8891473.196 10 0 60025 13500.00000 0 -24447775.730 4298475.014 5848102.874 10 0 60025 14400.00000 0 -24958123.006 4491501.438 2691046.203 10 0 60025 15300.00000 0 -25066397.321 4657074.738 -518330.312 10 0 60025 16200.00000 0 -24778130.448 4740186.715 -3717627.082 10 0 60025 17100.00000 0 -24111928.044 4688668.507 -6844630.104 10 0 60025 18000.00000 0 -23098654.204 4455647.477 -9838526.710 10 0 60025 18900.00000 0 -21780119.504 4001783.554 -12641093.999 10 0 60025 19800.00000 0 -20207328.016 3297189.223 -15197836.121 10 0 60025 20700.00000 0 -18438357.421 2322950.793 -17459047.665 10 0 60025 21600.00000 0 -16535961.769 1072185.601 -19380782.155 10 0 60025 22500.00000 0 -14564997.866 -449410.526 -20925706.710 10 0 60025 23400.00000 0 -12589783.548 -2223549.597 -22063826.364 10 0 60025 24300.00000 0 -10671498.516 -4219873.083 -22773064.298 10 0 60025 25200.00000 0 -8865736.372 -6396987.883 -23039687.175 10 0 60025 26100.00000 0 -7220309.759 -8703974.058 -22858567.775 10 0 60025 27000.00000 0 -5773399.665 -11082302.052 -22233280.314 10 0 60025 27900.00000 0 -4552125.258 -13468080.102 -21176026.979 10 0 60025 28800.00000 0 -3571592.914 -15794538.635 -19707397.344 10 0 60025 29700.00000 0 -2834462.918 -17994648.658 -17855965.479 10 0 60025 30600.00000 0 -2331050.609 -20003765.448 -15657732.563 10 0 60025 31500.00000 0 -2039956.367 -21762187.702 -13155425.777 10 0 60025 32400.00000 0 -1929196.628 -23217525.780 -10397666.985 10 0 60025 33300.00000 0 -1957787.158 -24326780.493 -7438027.252 10 0 60025 34200.00000 0 -2077710.799 -25058045.951 -4333985.589 10 0 60025 35100.00000 0 -2236185.756 -25391765.612 -1145812.187 10 0 60025 36000.00000 0 -2378137.873 -25321489.411 2064602.051 10 0 60025 36900.00000 0 -2448771.826 -24854100.673 5234946.710 10 0 60025 37800.00000 0 -2396132.018 -24009503.769 8303700.317 10 0 60025 38700.00000 0 -2173544.522 -22819786.069 11211322.468 10 0 60025 39600.00000 0 -1741836.515 -21327889.646 13901406.408 10 0 60025 40500.00000 0 -1071239.102 -19585848.669 16321769.881 10 0 60025 41400.00000 0 -142892.792 -17652666.332 18425463.335 10 0 60025 42300.00000 0 1050108.352 -15591920.073 20171676.372 10 0 60025 43200.00000 0 2502178.620 -13469194.834 21526525.397 10 0 60025 44100.00000 0 4195232.182 -11349451.056 22463707.805 10 0 60025 45000.00000 0 6099205.826 -9294436.558 22965010.516 10 0 60025 45900.00000 0 8173092.409 -7360249.424 23020663.437 10 0 60025 46800.00000 0 10366443.391 -5595152.621 22629531.188 10 0 60025 47700.00000 0 12621279.247 -4037730.615 21799139.337 10 0 60025 48600.00000 0 14874329.618 -2715464.002 20545534.304 10 0 60025 49500.00000 0 17059511.111 -1643780.935 18892979.089 10 0 60025 50400.00000 0 19110540.498 -825624.327 16873489.981 10 0 60025 51300.00000 0 20963575.082 -251552.395 14526222.385 10 0 60025 52200.00000 0 22559770.409 99632.144 11896716.825 10 0 60025 53100.00000 0 23847648.496 259751.135 9036019.062 10 0 60025 54000.00000 0 24785177.280 269666.338 5999690.901 10 0 60025 54900.00000 0 25341473.746 177308.452 2846730.631 10 0 60025 55800.00000 0 25498058.730 35403.667 -361575.798 10 0 60025 56700.00000 0 25249610.167 -101005.343 -3562850.198 10 0 60025 57600.00000 0 24604182.622 -177138.195 -6694840.329 10 0 60025 58500.00000 0 23582883.541 -141045.109 -9696636.398 10 0 60025 59400.00000 0 22219019.645 53945.057 -12509861.401 10 0 60025 60300.00000 0 20556749.361 447001.820 -15079811.478 10 0 60025 61200.00000 0 18649298.058 1067890.264 -17356523.451 10 0 60025 62100.00000 0 16556811.266 1935469.900 -19295748.446 10 0 60025 63000.00000 0 14343936.126 3056659.545 -20859812.563 10 0 60025 63900.00000 0 12077232.596 4425912.768 -22018347.936 10 0 60025 64800.00000 0 9822522.776 6025226.839 -22748880.296 10 0 60025 65700.00000 0 7642288.944 7824685.611 -23037262.080 10 0 60025 66600.00000 0 5593228.593 9783514.316 -22877943.129 10 0 60025 67500.00000 0 3724067.839 11851602.775 -22274074.218 10 0 60025 68400.00000 0 2073723.501 13971433.992 -21237441.785 10 0 60025 69300.00000 0 669889.443 16080338.057 -19788235.378 10 0 60025 70200.00000 0 -471895.127 18112977.727 -17954652.491 10 0 60025 71100.00000 0 -1348657.932 20003962.307 -15772348.441 10 0 60025 72000.00000 0 -1969870.682 21690480.977 -13283741.930 10 0 60025 72900.00000 0 -2356797.641 23114845.779 -10537189.677 10 0 60025 73800.00000 0 -2541344.470 24226838.206 -7586046.036 10 0 60025 74700.00000 0 -2564457.124 24985761.331 -4487625.896 10 0 60025 75600.00000 0 -2474139.434 25362111.766 -1302091.056 10 0 60025 76500.00000 0 -2323174.006 25338801.582 1908718.193 10 0 60025 77400.00000 0 -2166643.508 24911879.154 5082483.343 10 0 60025 78300.00000 0 -2059357.706 24090718.927 8157616.329 10 0 60025 79200.00000 0 -2053295.511 22897672.341 11074452.989 10 0 60025 80100.00000 0 -2195170.486 21367194.690 13776408.084 10 0 60025 81000.00000 0 -2524222.982 19544484.548 16211069.610 10 0 60025 81900.00000 0 -3070332.371 17483692.627 18331211.456 10 0 60025 82800.00000 0 -3852529.372 15245774.726 20095705.169 10 0 60025 83700.00000 0 -4877971.596 12896078.040 21470313.701 10 0 60025 84600.00000 0 -6141426.136 10501760.899 22428352.352 10 0 60025 85500.00000 0 -7625281.807 8129152.751 22951204.590 10 0 60026 0.00000 0 -9300091.560 5841163.662 23028683.221 10 0 60026 900.00000 0 -11125624.581 3694848.968 22659230.072 10 0 60026 1800.00000 0 -13052383.266 1739232.557 21849950.270 10 0 60026 2700.00000 0 -15023526.065 13474.369 20616480.307 10 0 60026 3600.00000 0 -16977115.058 -1454539.336 18982691.666 10 0 60026 4500.00000 0 -18848596.368 -2649126.130 16980235.161 10 0 60026 5400.00000 0 -20573410.474 -3567219.630 14647933.930 10 0 60026 6300.00000 0 -22089623.811 -4218247.136 12031036.026 10 0 60026 7200.00000 0 -23340471.647 -4623478.368 9180340.368 10 0 60026 8100.00000 0 -24276705.520 -4814873.272 6151212.507 10 0 60026 9000.00000 0 -24858646.322 -4833477.974 3002509.048 10 0 60026 9900.00000 0 -25057856.127 -4727437.266 -204568.287 10 0 60026 10800.00000 0 -24858357.778 -4549708.327 -3407666.347 10 0 60026 11700.00000 0 -24257350.174 -4355573.306 -6544498.205 10 0 60026 12600.00000 0 -23265388.493 -4200056.975 -9554060.328 10 0 60026 13500.00000 0 -21906021.273 -4135359.876 -12377824.780 10 0 60026 14400.00000 0 -20214899.242 -4208416.622 -14960882.570 10 0 60026 15300.00000 0 -18238393.177 -4458683.758 -17253015.259 10 0 60026 16200.00000 0 -16031778.778 -4916251.610 -19209673.623 10 0 60026 17100.00000 0 -13657064.637 -5600360.810 -20792844.238 10 0 60026 18000.00000 0 -11180554.300 -6518386.797 -21971787.192 10 0 60026 18900.00000 0 -8670244.289 -7665335.806 -22723630.956 10 0 60026 19800.00000 0 -6193166.506 -9023874.178 -23033813.242 10 0 60026 20700.00000 0 -3812785.546 -10564890.333 -22896359.815 10 0 60026 21600.00000 0 -1586558.761 -12248566.367 -22313996.294 10 0 60026 22500.00000 0 436240.083 -14025914.911 -21298091.150 10 0 60026 23400.00000 0 2216343.934 -15840717.309 -19868431.296 10 0 60026 24300.00000 0 3725887.591 -17631782.434 -18052834.734 10 0 60026 25200.00000 0 4949318.085 -19335431.959 -15886607.793 10 0 60026 26100.00000 0 5883783.765 -20888108.320 -13411857.449 10 0 60026 27000.00000 0 6538987.376 -22228996.399 -10676671.979 10 0 60026 27900.00000 0 6936510.885 -23302549.219 -7734185.760 10 0 60026 28800.00000 0 7108641.866 -24060811.884 -4641546.403 10 0 60026 29700.00000 0 7096752.203 -24465446.317 -1458804.311 10 0 60026 30600.00000 0 6949298.633 -24489371.863 1752253.630 10 0 60026 31500.00000 0 6719530.470 -24117952.917 4929303.368 10 0 60026 32400.00000 0 6463002.090 -23349683.691 8010692.520 10 0 60026 33300.00000 0 6234995.867 -22196341.372 10936635.150 10 0 60026 34200.00000 0 6087964.850 -20682601.169 13650369.211 10 0 60026 35100.00000 0 6069103.458 -18845129.219 16099254.312 10 0 60026 36000.00000 0 6218148.942 -16731191.068 18235788.811 10 0 60026 36900.00000 0 6565506.525 -14396833.483 20018526.891 10 0 60026 37800.00000 0 7130777.443 -11904714.992 21412878.405 10 0 60026 38700.00000 0 7921752.232 -9321674.834 22391776.571 10 0 60026 39600.00000 0 8933912.129 -6716140.774 22936201.104 10 0 60026 40500.00000 0 10150460.327 -4155482.626 23035547.085 10 0 60026 41400.00000 0 11542882.775 -1703420.501 22687832.658 10 0 60026 42300.00000 0 13072016.219 582405.527 21899741.482 10 0 60026 43200.00000 0 14689580.012 2652604.286 20686498.841 10 0 60026 44100.00000 0 16340108.872 4467851.668 19071583.253 10 0 60026 45000.00000 0 17963206.808 6000283.141 17086278.452 10 0 60026 45900.00000 0 19496028.762 7234403.317 14769073.558 10 0 60026 46800.00000 0 20875886.638 8167475.227 12164922.236 10 0 60026 47700.00000 0 22042870.689 8809373.589 9324374.475 10 0 60026 48600.00000 0 22942376.159 9181908.835 6302597.320 10 0 60026 49500.00000 0 23527428.632 9317650.922 3158303.277 10 0 60026 50400.00000 0 23760709.605 9258303.158 -47392.703 10 0 60026 51300.00000 0 23616196.218 9052695.432 -3252165.118 10 0 60026 52200.00000 0 23080345.180 8754482.500 -6393694.966 10 0 60026 53100.00000 0 22152770.126 8419645.611 -9410887.488 10 0 60026 54000.00000 0 20846383.090 8103904.188 -12245066.158 10 0 60026 54900.00000 0 19186993.452 7860148.064 -14841118.967 10 0 60026 55800.00000 0 17212380.712 7735999.903 -17148574.051 10 0 60026 56700.00000 0 14970879.668 7771611.677 -19122583.394 10 0 60026 57600.00000 0 12519537.032 7997789.093 -20724795.332 10 0 60026 58500.00000 0 9921916.478 8434523.705 -21924098.959 10 0 60026 59400.00000 0 7245643.662 9089995.116 -22697226.281 10 0 60026 60300.00000 0 4559793.379 9960085.679 -23029200.855 10 0 60026 61200.00000 0 1932227.414 11028428.460 -22913624.652 10 0 60026 62100.00000 0 -573006.614 12266986.737 -22352798.101 10 0 60026 63000.00000 0 -2898107.894 13637141.006 -21357671.329 10 0 60026 63900.00000 0 -4993686.228 15091238.132 -19947627.837 10 0 60026 64800.00000 0 -6820568.036 16574537.948 -18150104.969 10 0 60026 65700.00000 0 -8351170.631 18027475.892 -16000058.520 10 0 60026 66600.00000 0 -9570388.827 19388146.946 -13539281.852 10 0 60026 67500.00000 0 -10475958.361 20594906.810 -10815592.629 10 0 60026 68400.00000 0 -11078282.498 21588981.200 -7881902.856 10 0 60026 69300.00000 0 -11399730.582 22316973.662 -4795190.295 10 0 60026 70200.00000 0 -11473439.474 22733166.516 -1615391.292 10 0 60026 71100.00000 0 -11341669.630 22801518.123 1595763.395 10 0 60026 72000.00000 0 -11053786.225 22497272.344 4775946.884 10 0 60026 72900.00000 0 -10663951.403 21808112.433 7863445.162 10 0 60026 73800.00000 0 -10228625.800 20734810.614 10798353.135 10 0 60026 74700.00000 0 -9803985.269 19291345.850 13523734.458 10 0 60026 75600.00000 0 -9443362.188 17504484.493 15986722.738 10 0 60026 76500.00000 0 -9194819.431 15412840.926 18139543.038 10 0 60026 77400.00000 0 -9098959.350 13065456.921 19940434.236 10 0 60026 78300.00000 0 -9187060.090 10519958.325 21354454.937 10 0 60026 79200.00000 0 -9479617.754 7840365.031 22354157.900 10 0 60026 80100.00000 0 -9985355.922 5094644.486 22920120.422 10 0 60026 81000.00000 0 -10700744.506 2352109.384 23041320.888 10 0 60026 81900.00000 0 -11610048.768 -319233.459 22715354.401 10 0 60026 82800.00000 0 -12685907.205 -2855274.043 21948483.316 10 0 60026 83700.00000 0 -13890415.061 -5198223.377 20755521.414 10 0 60026 84600.00000 0 -15176669.080 -7298771.215 19159553.442 10 0 60026 85500.00000 0 -16490709.719 -9117888.410 17191494.708 10 0 60027 0.00000 0 -17773780.163 -10628199.453 14889498.675 10 0 60027 900.00000 0 -18964808.647 -11814869.340 12298221.868 10 0 60027 1800.00000 0 -20003008.470 -12675966.288 9467962.787 10 0 60027 2700.00000 0 -20830488.693 -13222288.341 6453686.875 10 0 60027 3600.00000 0 -21394763.626 -13476659.617 3313959.192 10 0 60027 4500.00000 0 -21651055.459 -13472727.251 109804.401 10 0 60027 5400.00000 0 -21564292.054 -13253310.316 -3096483.259 10 0 60027 6300.00000 0 -21110714.642 -12868371.166 -6242556.345 10 0 60027 7200.00000 0 -20279026.611 -12372695.800 -9267232.473 10 0 60027 8100.00000 0 -19071033.909 -11823382.255 -12111690.018 10 0 60027 9000.00000 0 -17501749.181 -11277244.163 -14720617.251 10 0 60027 9900.00000 0 -15598954.418 -10788240.139 -17043291.905 10 0 60027 10800.00000 0 -13402239.869 -10405038.457 -19034569.804 10 0 60027 11700.00000 0 -10961558.947 -10168820.481 -20655763.187 10 0 60027 12600.00000 0 -8335359.237 -10111416.044 -21875391.695 10 0 60027 13500.00000 0 -5588367.339 -10253849.689 -22669791.768 10 0 60027 14400.00000 0 -2789119.550 -10605359.178 -23023573.001 10 0 60027 15300.00000 0 -7340.893 -11162927.647 -22929913.120 10 0 60027 16200.00000 0 2688718.977 -11911349.073 -22390686.283 10 0 60027 17100.00000 0 5234882.841 -12823824.283 -21416422.643 10 0 60027 18000.00000 0 7573468.757 -13863062.459 -20026100.211 10 0 60027 18900.00000 0 9655438.847 -14982841.830 -18246773.196 10 0 60027 19800.00000 0 11442185.741 -16129964.043 -16113044.064 10 0 60027 20700.00000 0 12906883.445 -17246520.075 -13666389.503 10 0 60027 21600.00000 0 14035347.647 -18272372.447 -10954353.284 10 0 60027 22500.00000 0 14826370.933 -19147749.331 -8029621.606 10 0 60027 23400.00000 0 15291520.332 -19815841.338 -4948998.866 10 0 60027 24300.00000 0 15454407.105 -20225291.544 -1772303.814 10 0 60027 25200.00000 0 15349460.828 -20332473.805 1438792.367 10 0 60027 26100.00000 0 15020260.552 -20103463.150 4621963.252 10 0 60027 27000.00000 0 14517494.376 -19515615.097 7715436.206 10 0 60027 27900.00000 0 13896634.272 -18558687.083 10659189.652 10 0 60027 28800.00000 0 13215424.790 -17235454.479 13396115.216 10 0 60027 29700.00000 0 12531291.901 -15561794.834 15873122.337 10 0 60027 30600.00000 0 11898781.360 -13566236.184 18042164.152 10 0 60027 31500.00000 0 11367134.486 -11288987.632 19861165.151 10 0 60027 32400.00000 0 10978103.288 -8780491.814 21294833.165 10 0 60027 33300.00000 0 10764096.682 -6099558.615 22315340.531 10 0 60027 34200.00000 0 10746735.618 -3311156.772 22902861.782 10 0 60027 35100.00000 0 10935877.760 -483953.988 23045957.895 10 0 60027 36000.00000 0 11329152.872 2312293.474 22741799.910 10 0 60027 36900.00000 0 11912028.749 5009394.529 21996227.572 10 0 60027 37800.00000 0 12658405.481 7543311.311 20823641.627 10 0 60027 38700.00000 0 13531713.798 9856575.097 19246731.312 10 0 60027 39600.00000 0 14486472.178 11900430.535 17296041.613 10 0 60027 40500.00000 0 15470238.011 13636619.688 15009387.845 10 0 60027 41400.00000 0 16425871.441 15038732.161 12431128.033 10 0 60027 42300.00000 0 17294017.000 16093065.334 9611306.488 10 0 60027 43200.00000 0 18015698.630 16798959.200 6604684.621 10 0 60027 44100.00000 0 18534918.516 17168592.152 3469677.514 10 0 60027 45000.00000 0 18801149.560 17226246.786 267216.962 10 0 60027 45900.00000 0 18771615.506 17007077.185 -2940436.645 10 0 60027 46800.00000 0 18413261.471 16555430.305 -6090909.929 10 0 60027 47700.00000 0 17704330.554 15922793.095 -9122935.247 10 0 60027 48600.00000 0 16635478.846 15165452.857 -11977548.036 10 0 60027 49500.00000 0 15210380.705 14341970.572 -14599238.754 10 0 60027 50400.00000 0 13445797.738 13510574.751 -16937036.372 10 0 60027 51300.00000 0 11371107.697 12726586.586 -18945501.926 10 0 60027 52200.00000 0 9027312.233 12039985.645 -20585612.692 10 0 60027 53100.00000 0 6465564.427 11493219.154 -21825519.787 10 0 60027 54000.00000 0 3745277.069 11119347.358 -22641164.807 10 0 60027 54900.00000 0 931890.106 10940603.012 -23016743.923 10 0 60027 55800.00000 0 -1905610.203 10967425.452 -22945010.901 10 0 60027 56700.00000 0 -4697317.712 11198009.553 -22427413.646 10 0 60027 57600.00000 0 -7375069.827 11618388.192 -21474062.023 10 0 60027 58500.00000 0 -9875037.860 12203044.358 -20103527.849 10 0 60027 59400.00000 0 -12140137.473 12916026.863 -18342481.130 10 0 60027 60300.00000 0 -14122159.874 13712522.408 -16225169.560 10 0 60027 61200.00000 0 -15783536.027 14540817.647 -13792751.393 10 0 60027 62100.00000 0 -17098661.511 15344568.439 -11092494.507 10 0 60027 63000.00000 0 -18054727.917 16065280.532 -8176857.107 10 0 60027 63900.00000 0 -18652027.297 16644896.978 -5102467.922 10 0 60027 64800.00000 0 -18903718.202 17028382.971 -1929025.744 10 0 60027 65700.00000 0 -18835064.409 17166198.917 1281860.228 10 0 60027 66600.00000 0 -18482179.481 17016557.130 4467866.449 10 0 60027 67500.00000 0 -17890331.067 16547366.731 7567164.103 10 0 60027 68400.00000 0 -17111877.174 15737784.386 10519617.567 10 0 60027 69300.00000 0 -16203921.988 14579305.140 13267948.870 10 0 60027 70200.00000 0 -15225790.412 13076346.924 15758845.666 10 0 60027 71100.00000 0 -14236427.808 11246303.478 17943991.473 10 0 60027 72000.00000 0 -13291834.368 9119062.660 19780998.572 10 0 60027 72900.00000 0 -12442641.763 6736009.305 21234226.017 10 0 60027 73800.00000 0 -11731933.596 4148553.106 22275467.503 10 0 60027 74700.00000 0 -11193400.819 1416241.679 22884496.301 10 0 60027 75600.00000 0 -10849909.191 -1395464.018 23049457.166 10 0 60027 76500.00000 0 -10712538.635 -4217660.817 22767097.898 10 0 60027 77400.00000 0 -10780134.744 -6980619.672 22042836.065 10 0 60027 78300.00000 0 -11039391.330 -9616439.828 20890659.383 10 0 60027 79200.00000 0 -11465460.850 -12061631.703 19332861.133 10 0 60027 80100.00000 0 -12023067.468 -14259522.044 17399615.074 10 0 60027 81000.00000 0 -12668076.446 -16162382.032 15128397.233 10 0 60027 81900.00000 0 -13349454.264 -17733190.245 12563264.942 10 0 60027 82800.00000 0 -14011537.230 -18946957.236 9754006.347 10 0 60027 83700.00000 0 -14596513.046 -19791556.666 6755176.329 10 0 60027 84600.00000 0 -15047010.442 -20268028.405 3625037.236 10 0 60027 85500.00000 0 -15308687.065 -20390341.156 424425.006 10 0 60028 0.00000 0 -15332705.551 -20184624.968 -2784436.677 10 0 60028 900.00000 0 -15077992.146 -19687906.271 -5939152.363 10 0 60028 1800.00000 0 -14513181.281 -18946399.681 -8978372.226 10 0 60028 2700.00000 0 -13618162.828 -18013428.995 -11842992.157 10 0 60028 3600.00000 0 -12385165.369 -16947066.027 -14477308.156 10 0 60028 4500.00000 0 -10819328.684 -15807587.657 -16830103.651 10 0 60028 5400.00000 0 -8938740.250 -14654859.014 -18855647.884 10 0 60028 6300.00000 0 -6773933.196 -13545753.655 -20514585.807 10 0 60028 7200.00000 0 -4366865.902 -12531719.734 -21774702.198 10 0 60028 8100.00000 0 -1769425.178 -11656594.721 -22611545.470 10 0 60028 9000.00000 0 958485.192 -10954760.441 -23008899.442 10 0 60028 9900.00000 0 3751191.412 -10449715.623 -22959094.413 10 0 60028 10800.00000 0 6539739.209 -10153125.418 -22463151.956 10 0 60028 11700.00000 0 9254522.998 -10064387.164 -21530761.035 10 0 60028 12600.00000 0 11827945.967 -10170729.915 -20180086.198 10 0 60028 13500.00000 0 14197001.158 -10447842.878 -18437411.696 10 0 60028 14400.00000 0 16305666.987 -10861005.636 -16336628.481 10 0 60028 15300.00000 0 18107018.248 -11366672.018 -13918573.982 10 0 60028 16200.00000 0 19564965.565 -11914440.407 -11230237.374 10 0 60028 17100.00000 0 20655551.694 -12449326.998 -8323845.684 10 0 60028 18000.00000 0 21367751.514 -12914245.758 -5255848.467 10 0 60028 18900.00000 0 21703743.328 -13252590.092 -2085820.802 10 0 60028 19800.00000 0 21678641.218 -13410806.894 1124693.955 10 0 60028 20700.00000 0 21319700.712 -13340853.990 4313378.989 10 0 60028 21600.00000 0 20665032.167 -13002436.861 7418352.996 10 0 60028 22500.00000 0 19761876.782 -12364929.886 10379369.718 10 0 60028 23400.00000 0 18664518.429 -11408900.615 13138984.604 10 0 60028 24300.00000 0 17431919.587 -10127172.338 15643666.088 10 0 60028 25200.00000 0 16125180.988 -8525379.537 17844830.141 10 0 60028 26100.00000 0 14804931.703 -6621992.068 19699778.390 10 0 60028 27000.00000 0 13528759.045 -4447806.018 21172522.175 10 0 60028 27900.00000 0 12348785.717 -2044921.339 22234477.128 10 0 60028 28800.00000 0 11309495.288 534752.396 22865015.375 10 0 60028 29700.00000 0 10445896.573 3231401.282 23051865.136 10 0 60028 30600.00000 0 9782103.280 5979545.625 22791350.243 10 0 60028 31500.00000 0 9330388.012 8710520.090 22088464.984 10 0 60028 32400.00000 0 9090749.955 11355093.777 20956782.588 10 0 60028 33300.00000 0 9051014.247 13846122.557 19418198.619 10 0 60028 34200.00000 0 9187458.860 16121124.364 17502513.576 10 0 60028 35100.00000 0 9465942.791 18124671.049 15246861.937 10 0 60028 36000.00000 0 9843488.255 19810497.670 12694997.879 10 0 60028 36900.00000 0 10270250.354 21143241.482 9896450.757 10 0 60028 37800.00000 0 10691791.181 22099738.092 6905566.169 10 0 60028 38700.00000 0 11051562.131 22669820.565 3780450.876 10 0 60028 39600.00000 0 11293489.120 22856587.999 581842.082 10 0 60028 40500.00000 0 11364550.700 22676132.417 -2628076.657 10 0 60028 41400.00000 0 11217239.125 22156735.671 -5786889.394 10 0 60028 42300.00000 0 10811799.163 21337570.551 -8833167.242 10 0 60028 43200.00000 0 10118148.782 20266961.324 -11707668.834 10 0 60028 44100.00000 0 9117399.281 19000277.607 -14354497.717 10 0 60028 45000.00000 0 7802909.458 17597550.979 -16722193.472 10 0 60028 45900.00000 0 6180828.153 16120915.330 -18764734.949 10 0 60028 46800.00000 0 4270101.230 14631979.205 -20442435.917 10 0 60028 47700.00000 0 2101941.672 13189240.990 -21722715.724 10 0 60028 48600.00000 0 -281215.937 11845655.690 -22580730.291 10 0 60028 49500.00000 0 -2827233.629 10646455.277 -22999851.561 10 0 60028 50400.00000 0 -5476198.345 9627313.706 -22971986.589 10 0 60028 51300.00000 0 -8162680.564 8812932.898 -22497730.547 10 0 60028 52200.00000 0 -10818229.901 8216108.162 -21586351.097 10 0 60028 53100.00000 0 -13374004.388 7837311.309 -20255604.724 10 0 60028 54000.00000 0 -15763424.679 7664807.930 -18531388.768 10 0 60028 54900.00000 0 -17924743.375 7675302.890 -16447235.916 10 0 60028 55800.00000 0 -19803423.082 7835085.950 -14043660.953 10 0 60028 56700.00000 0 -21354224.821 8101628.419 -11367372.316 10 0 60028 57600.00000 0 -22542920.355 8425562.815 -8470363.662 10 0 60028 58500.00000 0 -23347557.675 8752961.388 -5408903.087 10 0 60028 59400.00000 0 -23759227.504 9027816.740 -2242439.638 10 0 60028 60300.00000 0 -23782299.597 9194619.324 967551.531 10 0 60028 61200.00000 0 -23434119.745 9200922.459 4158762.713 10 0 60028 62100.00000 0 -22744181.061 8999786.074 7269262.524 10 0 60028 63000.00000 0 -21752805.068 8551995.564 10238696.490 10 0 60028 63900.00000 0 -20509388.630 7827961.649 13009455.912 10 0 60028 64800.00000 0 -19070290.785 6809220.591 15527792.387 10 0 60028 65700.00000 0 -17496448.432 5489470.976 17744856.627 10 0 60028 66600.00000 0 -15850820.927 3875102.664 19617641.746 10 0 60028 67500.00000 0 -14195770.482 1985194.747 21109813.279 10 0 60028 68400.00000 0 -12590487.672 -149018.558 22192410.433 10 0 60028 69300.00000 0 -11088569.243 -2485193.083 22844405.509 10 0 60028 70200.00000 0 -9735848.835 -4971388.782 23053111.160 10 0 60028 71100.00000 0 -8568570.620 -7547991.165 22814427.870 10 0 60028 72000.00000 0 -7611981.555 -10149961.610 22132926.903 10 0 60028 72900.00000 0 -6879400.495 -12709324.403 21021766.893 10 0 60028 73800.00000 0 -6371802.692 -15157788.362 19502445.221 10 0 60028 74700.00000 0 -6077936.704 -17429395.016 17604388.298 10 0 60028 75600.00000 0 -5974968.630 -19463083.874 15364387.885 10 0 60028 76500.00000 0 -6029626.400 -21205068.417 12825893.502 10 0 60028 77400.00000 0 -6199795.892 -22610923.846 10038173.921 10 0 60028 78300.00000 0 -6436501.385 -23647299.373 7055363.412 10 0 60028 79200.00000 0 -6686186.506 -24293183.249 3935410.885 10 0 60028 80100.00000 0 -6893198.791 -24540667.279 738952.367 10 0 60028 81000.00000 0 -7002372.134 -24395178.574 -2471871.032 10 0 60028 81900.00000 0 -6961596.975 -23875168.726 -5634626.191 10 0 60028 82800.00000 0 -6724268.390 -23011273.546 -8687807.744 10 0 60028 83700.00000 0 -6251507.341 -21844978.977 -11572040.052 10 0 60028 84600.00000 0 -5514059.879 -20426849.715 -14231237.230 10 0 60028 85500.00000 0 -4493792.838 -18814395.589 -16613698.034 99